| time (UTC) | temp F | wind direction | speed MPH | gust MPH | rain 1hr in | rain 24hr in | rain mn in | humidity % | barometer mb |
| 20260506120904 | 77 | 113 | 2.0 | 9.0 | 0.00 | 0.00 | 0.00 | 95 | 1007.6 |
| 20260506115904 | 77 | 106 | 3.0 | 7.0 | 0.00 | 0.00 | 0.00 | 95 | 1007.4 |
| 20260506114404 | 77 | 167 | 3.0 | 5.0 | 0.00 | 0.00 | 0.00 | 95 | 1007.2 |
| 20260506113905 | 77 | 147 | 2.0 | 9.0 | 0.00 | 0.00 | 0.00 | 95 | 1007.1 |
| 20260506113404 | 77 | 155 | 2.0 | 5.0 | 0.00 | 0.00 | 0.00 | 95 | 1007.1 |
| 20260506112904 | 77 | 112 | 3.0 | 6.0 | 0.00 | 0.00 | 0.00 | 95 | 1007.0 |
| 20260506112404 | 77 | 190 | 1.0 | 5.0 | 0.00 | 0.00 | 0.00 | 95 | 1006.9 |
| 20260506111404 | 77 | 115 | 3.0 | 6.0 | 0.00 | 0.00 | 0.00 | 95 | 1006.9 |
| 20260506110904 | 77 | 119 | 3.0 | 7.0 | 0.00 | 0.00 | 0.00 | 95 | 1006.9 |
| 20260506105905 | 76 | 112 | 2.0 | 6.0 | 0.00 | 0.00 | 0.00 | 95 | 1006.8 |
| 20260506105404 | 76 | 113 | 3.0 | 5.0 | 0.00 | 0.00 | 0.00 | 95 | 1006.9 |
| 20260506104405 | 76 | 109 | 0.0 | 3.0 | 0.00 | 0.00 | 0.00 | 95 | 1007.0 |
| 20260506103904 | 76 | 112 | 2.0 | 3.0 | 0.00 | 0.00 | 0.00 | 95 | 1006.9 |
| 20260506102905 | 76 | 112 | 3.0 | 5.0 | 0.00 | 0.00 | 0.00 | 95 | 1006.9 |
| 20260506101905 | 76 | 102 | 2.0 | 5.0 | 0.00 | 0.00 | 0.00 | 95 | 1007.0 |
| 20260506101404 | 76 | 117 | 2.0 | 5.0 | 0.00 | 0.00 | 0.00 | 94 | 1006.9 |
| 20260506095904 | 77 | 105 | 2.0 | 5.0 | 0.00 | 0.00 | 0.00 | 94 | 1006.7 |
| 20260506094404 | 77 | 109 | 3.0 | 6.0 | 0.00 | 0.00 | 0.00 | 94 | 1006.5 |
| 20260506092405 | 77 | 109 | 2.0 | 6.0 | 0.00 | 0.00 | 0.00 | 94 | 1006.7 |
| 20260506091905 | 77 | 75 | 2.0 | 5.0 | 0.00 | 0.00 | 0.00 | 94 | 1006.8 |
| 20260506091404 | 77 | 86 | 2.0 | 3.0 | 0.00 | 0.00 | 0.00 | 94 | 1006.7 |
| 20260506090905 | 77 | 107 | 2.0 | 5.0 | 0.00 | 0.00 | 0.00 | 94 | 1006.8 |
| 20260506085404 | 77 | 113 | 3.0 | 6.0 | 0.00 | 0.00 | 0.00 | 94 | 1006.9 |
| 20260506084405 | 77 | 108 | 3.0 | 5.0 | 0.00 | 0.00 | 0.00 | 94 | 1007.0 |
| 20260506082905 | 77 | 98 | 4.0 | 7.0 | 0.00 | 0.00 | 0.00 | 94 | 1007.0 |
| 20260506082404 | 77 | 106 | 3.0 | 8.0 | 0.00 | 0.00 | 0.00 | 94 | 1007.0 |
| 20260506081904 | 77 | 130 | 5.0 | 8.0 | 0.00 | 0.00 | 0.00 | 93 | 1007.0 |
| 20260506080905 | 77 | 113 | 3.0 | 7.0 | 0.00 | 0.00 | 0.00 | 93 | 1007.1 |
| 20260506073405 | 77 | 148 | 3.0 | 6.0 | 0.00 | 0.00 | 0.00 | 93 | 1007.4 |
| 20260506070904 | 77 | 159 | 5.0 | 9.0 | 0.00 | 0.00 | 0.00 | 92 | 1007.8 |
| 20260506070404 | 77 | 136 | 4.0 | 8.0 | 0.00 | 0.00 | 0.00 | 92 | 1007.8 |
| 20260506061404 | 78 | 120 | 2.0 | 6.0 | 0.00 | 0.00 | 0.00 | 92 | 1007.7 |
| 20260506060404 | 78 | 132 | 3.0 | 6.0 | 0.00 | 0.00 | 0.00 | 92 | 1007.6 |
| 20260506050905 | 78 | 114 | 3.0 | 6.0 | 0.00 | 0.00 | 0.00 | 91 | 1007.9 |
| 20260506050405 | 78 | 98 | 3.0 | 7.0 | 0.00 | 0.00 | 0.00 | 91 | 1007.9 |
| 20260506044405 | 78 | 111 | 3.0 | 8.0 | 0.00 | 0.00 | 0.00 | 91 | 1007.9 |
| 20260506043904 | 78 | 116 | 4.0 | 8.0 | 0.00 | 0.00 | 0.00 | 91 | 1007.7 |
| 20260506041904 | 78 | 150 | 5.0 | 10.0 | 0.00 | 0.00 | 0.00 | 90 | 1007.7 |
| 20260506040904 | 78 | 134 | 6.0 | 10.0 | 0.00 | 0.00 | 0.00 | 90 | 1007.5 |
| 20260506040404 | 78 | 144 | 4.0 | 9.0 | 0.00 | 0.00 | 0.00 | 90 | 1007.4 |
| 20260506035904 | 78 | 148 | 5.0 | 8.0 | 0.00 | 0.00 | 0.00 | 90 | 1007.4 |
| 20260506034404 | 78 | 141 | 5.0 | 9.0 | 0.00 | 0.00 | 0.00 | 90 | 1007.4 |
| 20260506033904 | 78 | 155 | 5.0 | 10.0 | 0.00 | 0.00 | 0.00 | 90 | 1007.5 |
| 20260506033404 | 78 | 146 | 4.0 | 8.0 | 0.00 | 0.00 | 0.00 | 90 | 1007.4 |
| 20260506032404 | 78 | 136 | 5.0 | 12.0 | 0.00 | 0.00 | 0.00 | 90 | 1007.3 |
| 20260506025404 | 78 | 147 | 5.0 | 8.0 | 0.00 | 0.00 | 0.00 | 90 | 1007.1 |
| 20260506024904 | 78 | 144 | 5.0 | 8.0 | 0.00 | 0.00 | 0.00 | 90 | 1007.0 |
| 20260506024404 | 78 | 160 | 3.0 | 7.0 | 0.00 | 0.00 | 0.00 | 90 | 1007.0 |
| 20260506023404 | 78 | 109 | 5.0 | 9.0 | 0.00 | 0.00 | 0.00 | 90 | 1006.8 |
| 20260506022904 | 78 | 163 | 6.0 | 10.0 | 0.00 | 0.00 | 0.00 | 89 | 1006.8 |
| 20260506022404 | 78 | 116 | 5.0 | 7.0 | 0.00 | 0.00 | 0.00 | 89 | 1006.8 |
| 20260506020904 | 78 | 151 | 5.0 | 12.0 | 0.00 | 0.00 | 0.00 | 89 | 1006.5 |
| 20260506020404 | 78 | 143 | 5.0 | 10.0 | 0.00 | 0.00 | 0.00 | 89 | 1006.4 |
| 20260506011904 | 79 | 139 | 6.0 | 10.0 | 0.00 | 0.00 | 0.00 | 88 | 1005.8 |
| 20260506011404 | 79 | 116 | 5.0 | 10.0 | 0.00 | 0.00 | 0.00 | 88 | 1005.8 |
| 20260506010904 | 79 | 137 | 4.0 | 12.0 | 0.00 | 0.00 | 0.00 | 87 | 1005.7 |
| 20260506010404 | 79 | 165 | 6.0 | 9.0 | 0.00 | 0.00 | 0.00 | 87 | 1005.7 |
| 20260506005404 | 79 | 136 | 5.0 | 9.0 | 0.00 | 0.00 | 0.00 | 87 | 1005.6 |
| 20260506004904 | 79 | 161 | 5.0 | 12.0 | 0.00 | 0.00 | 0.00 | 87 | 1005.4 |
| 20260506004404 | 79 | 117 | 6.0 | 14.0 | 0.00 | 0.00 | 0.00 | 86 | 1005.5 |
| 20260506003904 | 80 | 127 | 5.0 | 12.0 | 0.00 | 0.00 | 0.00 | 86 | 1005.5 |
| 20260506003404 | 80 | 148 | 8.0 | 12.0 | 0.00 | 0.00 | 0.00 | 86 | 1005.4 |
| 20260506001404 | 80 | 156 | 5.0 | 12.0 | 0.00 | 0.00 | 0.00 | 86 | 1005.3 |
| 20260506000404 | 80 | 154 | 5.0 | 10.0 | 0.00 | 0.00 | 0.00 | 85 | 1005.3 |
| 20260505235904 | 80 | 161 | 6.0 | 10.0 | 0.00 | 0.00 | 0.00 | 85 | 1005.4 |
| 20260505234405 | 81 | 150 | 6.0 | 12.0 | 0.00 | 0.00 | 0.00 | 84 | 1005.3 |
| 20260505233904 | 81 | 151 | 6.0 | 12.0 | 0.00 | 0.00 | 0.00 | 84 | 1005.3 |
| 20260505233405 | 81 | 135 | 6.0 | 12.0 | 0.00 | 0.00 | 0.00 | 84 | 1005.4 |
| 20260505232904 | 81 | 146 | 6.0 | 12.0 | 0.00 | 0.00 | 0.00 | 83 | 1005.5 |
| 20260505232404 | 81 | 161 | 4.0 | 8.0 | 0.00 | 0.00 | 0.00 | 83 | 1005.4 |
| 20260505230904 | 82 | 148 | 7.0 | 12.0 | 0.00 | 0.00 | 0.00 | 81 | 1005.4 |
| 20260505224404 | 82 | 163 | 7.0 | 12.0 | 0.00 | 0.00 | 0.00 | 82 | 1005.4 |
| 20260505223904 | 82 | 127 | 5.0 | 12.0 | 0.00 | 0.00 | 0.00 | 82 | 1005.4 |
| 20260505222905 | 82 | 149 | 7.0 | 13.0 | 0.00 | 0.00 | 0.00 | 81 | 1005.6 |
| 20260505221904 | 83 | 148 | 5.0 | 12.0 | 0.00 | 0.00 | 0.00 | 82 | 1005.7 |
| 20260505220904 | 82 | 132 | 7.0 | 12.0 | 0.00 | 0.00 | 0.00 | 82 | 1005.7 |
| 20260505220404 | 82 | 123 | 6.0 | 9.0 | 0.00 | 0.00 | 0.00 | 82 | 1005.6 |
| 20260505214904 | 82 | 140 | 7.0 | 14.0 | 0.00 | 0.00 | 0.00 | 81 | 1005.8 |
| 20260505214404 | 83 | 169 | 8.0 | 12.0 | 0.00 | 0.00 | 0.00 | 80 | 1005.9 |
| 20260505212904 | 83 | 164 | 6.0 | 12.0 | 0.00 | 0.00 | 0.00 | 81 | 1006.0 |
| 20260505212404 | 83 | 171 | 6.0 | 12.0 | 0.00 | 0.00 | 0.00 | 80 | 1006.0 |
| 20260505211904 | 83 | 182 | 7.0 | 12.0 | 0.00 | 0.00 | 0.00 | 79 | 1006.2 |
| 20260505211404 | 83 | 167 | 7.0 | 14.0 | 0.00 | 0.00 | 0.00 | 79 | 1006.2 |
| 20260505210904 | 84 | 174 | 7.0 | 12.0 | 0.00 | 0.00 | 0.00 | 78 | 1006.3 |
| 20260505210404 | 84 | 179 | 7.0 | 13.0 | 0.00 | 0.00 | 0.00 | 79 | 1006.3 |
| 20260505204905 | 84 | 182 | 7.0 | 13.0 | 0.00 | 0.00 | 0.00 | 78 | 1006.6 |
| 20260505204404 | 84 | 164 | 7.0 | 14.0 | 0.00 | 0.00 | 0.00 | 78 | 1006.6 |
| 20260505203904 | 84 | 187 | 8.0 | 14.0 | 0.00 | 0.00 | 0.00 | 79 | 1006.6 |
| 20260505203404 | 84 | 180 | 8.0 | 13.0 | 0.00 | 0.00 | 0.00 | 80 | 1006.8 |
| 20260505202404 | 84 | 138 | 7.0 | 12.0 | 0.00 | 0.00 | 0.00 | 80 | 1006.9 |
| 20260505200904 | 84 | 150 | 6.0 | 12.0 | 0.00 | 0.00 | 0.00 | 81 | 1006.9 |
| 20260505195904 | 83 | 158 | 7.0 | 14.0 | 0.00 | 0.00 | 0.00 | 82 | 1007.1 |
| 20260505194404 | 84 | 96 | 6.0 | 10.0 | 0.00 | 0.00 | 0.00 | 80 | 1007.1 |
| 20260505193904 | 84 | 136 | 5.0 | 10.0 | 0.00 | 0.00 | 0.00 | 81 | 1007.2 |
| 20260505192404 | 84 | 177 | 5.0 | 10.0 | 0.00 | 0.00 | 0.00 | 82 | 1007.2 |
| 20260505191404 | 83 | 174 | 8.0 | 13.0 | 0.00 | 0.00 | 0.00 | 81 | 1007.4 |
| 20260505190904 | 83 | 184 | 7.0 | 15.0 | 0.00 | 0.00 | 0.00 | 82 | 1007.3 |
| 20260505184903 | 82 | 182 | 6.0 | 12.0 | 0.00 | 0.00 | 0.00 | 84 | 1007.4 |
| 20260505184404 | 82 | 170 | 7.0 | 12.0 | 0.00 | 0.00 | 0.00 | 84 | 1007.5 |
| 20260505183904 | 81 | 156 | 5.0 | 12.0 | 0.00 | 0.00 | 0.00 | 85 | 1007.6 |
| 20260505183404 | 81 | 160 | 4.0 | 7.0 | 0.00 | 0.00 | 0.00 | 85 | 1007.7 |
| 20260505182904 | 81 | 184 | 8.0 | 13.0 | 0.00 | 0.00 | 0.00 | 84 | 1007.7 |
| 20260505182404 | 81 | 167 | 6.0 | 12.0 | 0.00 | 0.00 | 0.00 | 83 | 1007.7 |
| 20260505181904 | 81 | 177 | 7.0 | 13.0 | 0.00 | 0.00 | 0.00 | 83 | 1007.8 |
| 20260505180903 | 81 | 165 | 6.0 | 9.0 | 0.00 | 0.00 | 0.00 | 84 | 1007.9 |
| 20260505175904 | 81 | 164 | 5.0 | 10.0 | 0.00 | 0.00 | 0.00 | 84 | 1007.8 |
| 20260505174404 | 81 | 177 | 8.0 | 12.0 | 0.00 | 0.00 | 0.00 | 84 | 1007.9 |
| 20260505173904 | 81 | 171 | 6.0 | 10.0 | 0.00 | 0.00 | 0.00 | 85 | 1008.0 |
| 20260505172904 | 80 | 157 | 6.0 | 12.0 | 0.00 | 0.00 | 0.00 | 85 | 1008.0 |
| 20260505171904 | 80 | 162 | 5.0 | 8.0 | 0.00 | 0.00 | 0.00 | 85 | 1008.1 |
| 20260505171404 | 80 | 141 | 5.0 | 8.0 | 0.00 | 0.00 | 0.00 | 85 | 1008.1 |
| 20260505170904 | 80 | 166 | 6.0 | 10.0 | 0.00 | 0.00 | 0.00 | 85 | 1008.2 |
| 20260505170403 | 80 | 169 | 7.0 | 13.0 | 0.00 | 0.00 | 0.00 | 85 | 1008.2 |
| 20260505165904 | 80 | 178 | 7.0 | 12.0 | 0.00 | 0.00 | 0.00 | 85 | 1008.2 |
| 20260505164404 | 80 | 168 | 7.0 | 12.0 | 0.00 | 0.00 | 0.00 | 86 | 1008.1 |
| 20260505162903 | 79 | 159 | 3.0 | 7.0 | 0.00 | 0.00 | 0.00 | 87 | 1008.0 |
| 20260505160904 | 80 | 185 | 6.0 | 12.0 | 0.00 | 0.00 | 0.00 | 85 | 1008.1 |
| 20260505160404 | 80 | 111 | 5.0 | 8.0 | 0.00 | 0.00 | 0.00 | 85 | 1007.9 |
| 20260505151403 | 79 | 174 | 7.0 | 13.0 | 0.00 | 0.00 | 0.00 | 85 | 1007.6 |
| 20260505150904 | 79 | 174 | 7.0 | 14.0 | 0.00 | 0.00 | 0.00 | 85 | 1007.6 |
| 20260505124906 | 74 | 164 | 4.0 | 7.0 | 0.00 | 0.00 | 0.00 | 92 | 1007.5 |
| 20260505124406 | 74 | 164 | 4.0 | 7.0 | 0.00 | 0.00 | 0.00 | 92 | 1007.5 |
| 20260505123906 | 74 | 155 | 4.0 | 6.0 | 0.00 | 0.00 | 0.00 | 92 | 1007.2 |
| 20260505122906 | 74 | 133 | 3.0 | 8.0 | 0.00 | 0.00 | 0.00 | 92 | 1007.1 |
| 20260505122405 | 74 | 130 | 3.0 | 7.0 | 0.00 | 0.00 | 0.00 | 92 | 1006.9 |